Tracking 34138 objects as of 15-May-2026
HD Live streaming from Space Station
objects crossing your sky now

STARLINK-37016

Track STARLINK-37016 now!
10-day predictions
STARLINK-37016 is classified as:


NORAD ID: 68288
Int'l Code: 2026-055AC
Perigee: 446.7 km
Apogee: 447.1 km
Inclination: 53.2 °
Period: 93.4 minutes
Semi major axis: 6817 km
RCS: Unknown
Launch date: March 19, 2026
Source: United States (US)
Launch site: AIR FORCE EASTERN TEST RANGE (AFETR)
Your satellite tracking list
Your tracking list is empty




NASA's NSSDC Master Catalog

Two Line Element Set (TLE):
1 68288U 26055AC  26135.11163809  .00026811  00000-0  62325-3 0  9995
2 68288  53.1607  10.5241 0000300 309.3225  50.7755 15.42166645 10107
Source of the keplerian elements: AFSPC